Regional Weather Roundup
Issued by NWS Kansas City/Pleasant Hill, MO

Home | Current Version | Previous Version | Text Only | Print | Product List | Glossary On
Versions: 1 2 3 4 5 6 7 8 9 10 11 12 13 14 15 16 17 18 19 20 21 22 23 24 25 26 27
000
ASUS43 KEAX 302010
RWREAX

WEATHER ROUNDUP FOR EASTERN KANSAS AND NORTHWEST MISSOURI
NATIONAL WEATHER SERVICE KANSAS CITY/PLEASANT HILL MO
300 PM CDT TUE AUG 30 2016

KSZ040-057-103>105-MOZ028-029-037-043-302100-
...KANSAS CITY METROPOLITAN AREA...

CITY           SKY/WX    TMP DP  RH WIND       PRES   REMARKS
K.C. INTL      PTSUNNY   85  71  63 E5        30.12F HX  90
K.C. DOWNTOWN  MOSUNNY   87  72  60 NE5       30.09F HX  93
LEES SUMMIT    MOSUNNY   85  72  65 NE6       30.11F HX  91
OLATHE - IXD   SUNNY     85  73  67 N5        30.12F HX  91
OLATHE - OJC   PTSUNNY   83  70  64 N5        30.11F
LAWRENCE       CLOUDY    78  73  84 N9        30.11F

$$

MOZ001>008-011>017-020>025-030>033-038>040-044>046-053-054-302100-
...NORTHERN AND CENTRAL MISSOURI...

CITY           SKY/WX    TMP DP  RH WIND       PRES   REMARKS
ST. JOSEPH     CLOUDY    82  71  69 NE7       30.12F
MOSBY          PTCLDY    84  70  61 NE3       30.10F
WHITEMAN AFB   MOSUNNY   87  74  64 NE5       30.09F HX  96
CLINTON        PTSUNNY   90  73  58 CALM      30.09F HX  98
SEDALIA        MOSUNNY   89  73  59 N8        30.11F HX  97
WARSAW         NOT AVBL
CHILLICOTHE      N/A     84  73  69 NE3       30.12F HX  90
KIRKSVILLE     CLOUDY    83  71  67 NE3       30.13F

$$

MOZ041-047>049-056>058-063>065-088>090-097-302100-
...EASTERN AND SOUTHERN MISSOURI...

CITY           SKY/WX    TMP DP  RH WIND       PRES   REMARKS
ST. LOUIS INTL CLOUDY    78  69  73 NE6       30.13S THUNDER
SPIRIT OF STL  CLOUDY    77  71  82 NE6       30.12F
COLUMBIA       PTSUNNY   80  72  76 E8        30.13F
JEFFERSON CITY CLOUDY    76  71  85 SE8       30.12R THUNDER
ROLLA          SUNNY     90  70  51 VRB5      30.10F HX  95
OSAGE BEACH    MOSUNNY   83  73  72 N8        30.11F
SPRINGFIELD    MOSUNNY   92  68  45 NE10      30.09F HX  96
BRANSON        PTSUNNY   88  72  58 NE6       30.11F HX  94
JOPLIN         MOSUNNY   91  71  51 VRB6      30.07F HX  97
WEST PLAINS    SUNNY     90  68  48 VRB3      30.11F HX  94

$$

IAZ060-094-KSZ022-034>040-054-083-096-NEZ052-066-093-302100-
...KANSAS...SOUTHEAST NEBRASKA AND IOWA...

CITY           SKY/WX    TMP DP  RH WIND       PRES   REMARKS
TOPEKA         CLOUDY    84  72  67 N5        30.11F
MANHATTAN      PTSUNNY   81  72  74 N8        30.12F
EMPORIA        MOSUNNY   87  71  58 NE7       30.10F HX  93
CHANUTE        MOSUNNY   91  72  53 VRB3      30.08F HX  98
WICHITA        PTSUNNY   88  68  51 NW6       30.09F HX  91
OMAHA          CLOUDY    80  68  66 CALM      30.16F
LINCOLN        CLOUDY    80  69  69 VRB3      30.16F
FALLS CITY     MOSUNNY   81  71  71 VRB3      30.13F
LAMONI         CLOUDY    77  73  87 N5        30.13F
DES MOINES     CLOUDY    82  70  66 N6        30.13F

$$





USA.gov is the U.S. government's official web portal to all federal, state and local government web resources and services.